Location: Jackson Park
(37.2862°N, 79.9123°W)
Time: 12:21:21
(UTC+00:00)

ISS - Pass Details

Date: 18 April 2026
Orbit: 414 x 424 km, 51.6° (Epoch: 12 May)

Event Time Altitude Azimuth Distance (km) Brightness Sun altitude
Exits shadow 09:37:44 21° 223° (SW) 1,007 -2.4 -12.7°
Maximum altitude 09:39:51 80° 139° (SE) 429 -3.7 -12.3°
Drops below altitude 10° 09:43:14 10° 52° (NE) 1,503 0.4 -11.7°
Sets 09:45:21 0° 51° (NE) 2,372 1.7 -11.3°
